Location: Church Tower
(37.7144°N, 119.6316°W)
Time: 18:51:07
(UTC+00:00)

Cosmos 2369 Rocket - Pass Details

Date: 15 November 2025
Orbit: 826 x 853 km, 71.0° (Epoch: 08 December)

Event Time Altitude Azimuth Distance (km) Brightness Sun altitude
Rises 13:52:56 0° 335° (NNW) 3,414 5.0 -9.4°
Reaches altitude 10° 13:55:23 10° 333° (NNW) 2,478 4.2 -9.0°
Maximum altitude 14:01:03 71° 251° (WSW) 898 2.2 -7.9°
Drops below altitude 10° 14:06:42 10° 168° (SSE) 2,471 5.1 -6.8°
Sets 14:09:09 0° 166° (SSE) 3,404 5.8 -6.4°
